Regional Weather Roundup
Issued by NWS

Home | Current Version | Previous Version | Graphics & Text | Print | Product List | Glossary On
Versions: 1 2 3 4 5 6 7 8 9 10 11 12 13 14 15 16 17 18 19 20 21 22 23 24 25 26 27 28 29 30 31 32 33 34 35 36 37 38 39 40 41 42 43 44 45 46 47 48 49 50
000
ASUS44 KMEG 280210
RWRTN
TENNESSEE HOURLY STATE WEATHER ROUNDUP
NATIONAL WEATHER SERVICE MEMPHIS TN
900 PM CDT WED AUG 27 2014

TNZ002-004-019-021-049-052-054-088>092-280300-
WEST TENNESSEE

CITY           SKY/WX    TMP DP  RH WIND       PRES   REMARKS
MEMPHIS INTL   CLEAR     85  65  51 E7        30.03R
NWS MEMPHIS      N/A     79 N/A N/A MISG        N/A
JACKSON        CLEAR     76  73  91 CALM      30.05R
DYERSBURG      CLEAR     79  66  65 CALM      30.05R
UNION CITY     CLEAR     79  75  89 CALM      30.04R
PARIS          CLEAR     73  72  94 CALM      30.06R
HUNTINGDON     CLEAR     75  72  91 CALM      30.05R
LEXINGTON      CLEAR     75  72  88 CALM      30.04R
SAVANNAH       CLEAR     73  73 100 CALM      30.05R
$$

TNZ008-025-027-028-033-062-065-066-280300-
NORTH MIDDLE TENNESSEE

CITY           SKY/WX    TMP DP  RH WIND       PRES   REMARKS
NASHVILLE      PTCLDY    82  70  66 E5        30.05S
DICKSON        CLEAR     77  73  88 CALM      30.06R
PORTLAND       PTCLDY    75  72  88 CALM      30.06R
CLARKSVILLE    PTCLDY    79  72  79 CALM      30.04S
LEBANON        CLEAR     78  71  79 CALM      30.04R
SMYRNA         CLEAR     77  72  84 CALM      30.06R
MURFREESBORO   CLEAR     79  69  71 CALM      30.05R
COOKEVILLE     CLEAR     72  70  94 CALM      30.07S
LIVINGSTON     CLEAR     76  68  76 CALM      30.09S
GALLATIN       CLEAR     80  74  82 CALM      30.06R
CROSSVILLE     CLEAR     71  65  81 CALM      30.13R
$$

TNZ061-075-076-078-094-096-097-280300-
SOUTH MIDDLE TENNESSEE

CITY           SKY/WX    TMP DP  RH WIND       PRES   REMARKS
LEWISBURG      CLEAR     73  68  84 CALM      30.05R
FAYETTEVILLE   PTCLDY    75  68  78 CALM      30.07R
TULLAHOMA      CLEAR     72  64  78 CALM      30.09R
WINCHESTER     CLEAR     73  68  83 CALM      30.08R
MCMINNVILLE    CLEAR     73  73 100 CALM      30.08R
COLUMBIA         N/A     79  75  89 CALM      30.05R
SHELBYVILLE    CLEAR     73  70  88 CALM      30.07R
$$

TNZ017-018-042-046-047-280300-
NORTHEAST TENNESSEE

CITY           SKY/WX    TMP DP  RH WIND       PRES   REMARKS
TRI CITIES     CLEAR     67  60  78 CALM      30.09R
ELIZABETHTON   CLEAR     63  61  94 CALM      30.10F
$$

TNZ012-013-036-069-073-074-280300-
CENTRAL EAST TENNESSEE

CITY           SKY/WX    TMP DP  RH WIND       PRES   REMARKS
KNOXVILLE      CLEAR     75  64  68 CALM      30.05R
OAK RIDGE      CLEAR     73  66  78 CALM      30.08R
GATLINBURG     CLEAR     72  64  78 CALM      30.07R
MORRISTOWN     CLEAR     72  66  83 CALM      30.09S
$$

TNZ083-085-099-280300-
SOUTHEAST TENNESSEE

CITY           SKY/WX    TMP DP  RH WIND       PRES   REMARKS
CHATTANOOGA    CLEAR     75  66  73 CALM      30.06R
$$

SKY/WX REPORTED AS FAIR MEANS FEW OR NO CLOUDS BELOW
12 THOUSAND FEET.




USA.gov is the U.S. government's official web portal to all federal, state and local government web resources and services.